Simultaneous Nadir Overpasses (SNOs) Predictions

Prediction of SNOs between LANDSAT-8 and NOAA-19 Satellite Orbit:

Table of predicted SNOs for the next 14.0 days since TLE Epoch: 5/22/2015
Index Date (LANDSAT-8) Time (LANDSAT-8) Lat,Lon (LANDSAT-8) SZA (LANDSAT-8 ) Date (NOAA-19) Time (NOAA-19) Lat,Lon (NOAA-19) SZA (NOAA-19 ) Distance(km) Time Diff (sec)
1 05/24/2015 02:06:02 73.15, 149.68 52.39 05/24/2015 02:05:59 73.16, 149.73 52.40 1.98 3
2 05/24/2015 02:55:39 -72.67, -43.63 128.11 05/24/2015 02:56:48 -72.68, -41.95 128.08 55.43 69
3 05/26/2015 06:50:18 73.25, 78.81 52.09 05/26/2015 06:49:23 73.23, 78.75 52.07 2.61 55
4 05/26/2015 07:39:48 -73.14,-113.77 128.03 05/26/2015 07:40:19 -73.13,-113.74 128.04 1.76 31
5 05/28/2015 12:24:05 -73.18, 175.24 128.36 05/28/2015 12:23:42 -73.18, 175.32 128.36 2.83 23
6 05/28/2015 13:13:32 73.08, -17.32 51.54 05/28/2015 13:14:45 73.08, -17.22 51.55 3.07 73
7 05/30/2015 17:08:20 -73.31, 104.44 128.56 05/30/2015 17:07:07 -73.34, 104.15 128.54 9.89 73
8 05/30/2015 17:57:48 73.16, -88.22 51.28 05/30/2015 17:58:09 73.17, -88.23 51.29 1.30 21
9 06/01/2015 22:42:04 73.23,-159.15 51.04 06/01/2015 22:41:32 73.22,-159.15 51.03 1.42 32
10 06/01/2015 23:31:34 -73.13, 8.27 129.07 06/01/2015 23:32:27 -73.13, 8.32 129.06 1.59 53
11 06/04/2015 03:26:13 73.66, 130.69 51.21 06/04/2015 03:25:04 73.72, 128.87 51.25 57.20 69
12 06/04/2015 04:15:50 -73.19, -62.67 129.29 06/04/2015 04:15:50 -73.20, -62.65 129.27 1.67 0
